| time (UTC) | temp F | wind direction | speed MPH | gust MPH | rain 1hr in | rain 24hr in | rain mn in | humidity % | barometer mb |
| 20260905212103 | 100 | 124 | 2.0 | 6.0 | 0.00 | 0.00 | 0.00 | 34 | 1009.6 |
| 20260905211540 | 100 | 113 | 2.0 | 7.0 | 0.00 | 0.00 | 0.00 | 37 | 1009.6 |
| 20260905211016 | 98 | 88 | 2.0 | 6.0 | 0.00 | 0.00 | 0.00 | 37 | 1009.7 |
| 20260905210515 | 99 | 4 | 2.0 | 6.0 | 0.00 | 0.00 | 0.00 | 35 | 1009.9 |
| 20260905205959 | 99 | 134 | 1.0 | 5.0 | 0.00 | 0.00 | 0.00 | 35 | 1009.9 |
| 20260905205456 | 100 | 347 | 1.0 | 7.0 | 0.00 | 0.00 | 0.00 | 35 | 1010.0 |
| 20260905204959 | 100 | 108 | 1.0 | 7.0 | 0.00 | 0.00 | 0.00 | 35 | 1010.1 |
| 20260905204434 | 100 | 17 | 2.0 | 5.0 | 0.00 | 0.00 | 0.00 | 36 | 1010.2 |
| 20260905203907 | 100 | 127 | 3.0 | 9.0 | 0.00 | 0.00 | 0.00 | 36 | 1010.2 |
| 20260905203635 | 100 | 185 | 2.0 | 9.0 | 0.00 | 0.00 | 0.00 | 36 | 1010.3 |
| 20260905202844 | 100 | 136 | 1.0 | 6.0 | 0.00 | 0.00 | 0.00 | 37 | 1010.3 |
| 20260905202351 | 99 | 325 | 2.0 | 6.0 | 0.00 | 0.00 | 0.00 | 34 | 1010.5 |
| 20260905201827 | 100 | 107 | 2.0 | 8.0 | 0.00 | 0.00 | 0.00 | 35 | 1010.5 |
| 20260905201326 | 99 | 243 | 3.0 | 8.0 | 0.00 | 0.00 | 0.00 | 36 | 1010.5 |
| 20260905201044 | 101 | 205 | 1.0 | 6.0 | 0.00 | 0.00 | 0.00 | 33 | 1010.6 |
| 20260905200327 | 101 | 115 | 1.0 | 4.0 | 0.00 | 0.00 | 0.00 | 34 | 1010.7 |
| 20260905195813 | 100 | 114 | 1.0 | 4.0 | 0.00 | 0.00 | 0.00 | 36 | 1010.7 |
| 20260905195300 | 99 | 137 | 2.0 | 5.0 | 0.00 | 0.00 | 0.00 | 36 | 1010.8 |
| 20260905194800 | 100 | 75 | 2.0 | 6.0 | 0.00 | 0.00 | 0.00 | 35 | 1010.9 |
| 20260905194257 | 99 | 214 | 2.0 | 7.0 | 0.00 | 0.00 | 0.00 | 36 | 1010.9 |
| 20260905194023 | 99 | 128 | 2.0 | 7.0 | 0.00 | 0.00 | 0.00 | 34 | 1011.0 |
| 20260905193230 | 100 | 129 | 1.0 | 6.0 | 0.00 | 0.00 | 0.00 | 35 | 1011.1 |
| 20260905192732 | 98 | 146 | 1.0 | 7.0 | 0.00 | 0.00 | 0.00 | 36 | 1011.2 |
| 20260905192209 | 98 | 52 | 2.0 | 7.0 | 0.00 | 0.00 | 0.00 | 37 | 1011.3 |
| 20260905191710 | 98 | 127 | 3.0 | 8.0 | 0.00 | 0.00 | 0.00 | 39 | 1011.4 |
| 20260905191416 | 98 | 220 | 2.0 | 8.0 | 0.00 | 0.00 | 0.00 | 37 | 1011.5 |
| 20260905190642 | 99 | 125 | 1.0 | 6.0 | 0.00 | 0.00 | 0.00 | 38 | 1011.7 |
| 20260905185612 | 98 | 186 | 1.0 | 5.0 | 0.00 | 0.00 | 0.00 | 37 | 1012.0 |
| 20260905185049 | 98 | 91 | 2.0 | 8.0 | 0.00 | 0.00 | 0.00 | 40 | 1012.1 |
| 20260905184538 | 97 | 136 | 3.0 | 8.0 | 0.00 | 0.00 | 0.00 | 40 | 1012.2 |
| 20260905184040 | 97 | 153 | 3.0 | 8.0 | 0.00 | 0.00 | 0.00 | 40 | 1012.2 |
| 20260905183753 | 97 | 165 | 3.0 | 8.0 | 0.00 | 0.00 | 0.00 | 39 | 1012.3 |
| 20260905183004 | 98 | 217 | 2.0 | 8.0 | 0.00 | 0.00 | 0.00 | 40 | 1012.3 |
| 20260905182505 | 98 | 124 | 2.0 | 5.0 | 0.00 | 0.00 | 0.00 | 39 | 1012.5 |
| 20260905182007 | 98 | 200 | 2.0 | 8.0 | 0.00 | 0.00 | 0.00 | 39 | 1012.6 |
| 20260905181724 | 98 | 124 | 2.0 | 8.0 | 0.00 | 0.00 | 0.00 | 38 | 1012.6 |
| 20260905181004 | 97 | 261 | 2.0 | 8.0 | 0.00 | 0.00 | 0.00 | 38 | 1012.6 |
| 20260905180436 | 98 | 118 | 2.0 | 8.0 | 0.00 | 0.00 | 0.00 | 38 | 1012.8 |
| 20260905175912 | 97 | 127 | 2.0 | 6.0 | 0.00 | 0.00 | 0.00 | 39 | 1012.9 |
| 20260905175344 | 97 | 51 | 2.0 | 8.0 | 0.00 | 0.00 | 0.00 | 39 | 1012.9 |
| 20260905174818 | 97 | 143 | 2.0 | 8.0 | 0.00 | 0.00 | 0.00 | 40 | 1013.0 |
| 20260905174251 | 97 | 129 | 2.0 | 7.0 | 0.00 | 0.00 | 0.00 | 41 | 1013.1 |
| 20260905173746 | 97 | 231 | 2.0 | 7.0 | 0.00 | 0.00 | 0.00 | 39 | 1013.1 |
| 20260905173443 | 97 | 141 | 2.0 | 6.0 | 0.00 | 0.00 | 0.00 | 40 | 1013.1 |
| 20260905172715 | 97 | 142 | 2.0 | 7.0 | 0.00 | 0.00 | 0.00 | 41 | 1013.2 |
| 20260905172150 | 96 | 129 | 3.0 | 8.0 | 0.00 | 0.00 | 0.00 | 41 | 1013.2 |
| 20260905171648 | 96 | 137 | 1.0 | 8.0 | 0.00 | 0.00 | 0.00 | 41 | 1013.3 |
| 20260905171133 | 96 | 90 | 1.0 | 7.0 | 0.00 | 0.00 | 0.00 | 41 | 1013.3 |
| 20260905170604 | 96 | 114 | 2.0 | 9.0 | 0.00 | 0.00 | 0.00 | 42 | 1013.4 |
| 20260905170105 | 95 | 130 | 3.0 | 9.0 | 0.00 | 0.00 | 0.00 | 43 | 1013.4 |
| 20260905170028 | 95 | 155 | 3.0 | 8.0 | 0.00 | 0.00 | 0.00 | 43 | 1013.4 |
| 20260905165044 | 96 | 236 | 1.0 | 8.0 | 0.00 | 0.00 | 0.00 | 44 | 1013.4 |
| 20260905164542 | 97 | 142 | 0.0 | 8.0 | 0.00 | 0.00 | 0.00 | 43 | 1013.4 |
| 20260905164306 | 96 | 213 | 0.0 | 5.0 | 0.00 | 0.00 | 0.00 | 45 | 1013.5 |
| 20260905163514 | 96 | 281 | 1.0 | 5.0 | 0.00 | 0.00 | 0.00 | 46 | 1013.5 |
| 20260905163005 | 95 | 278 | 0.0 | 3.0 | 0.00 | 0.00 | 0.00 | 46 | 1013.5 |
| 20260905162503 | 96 | 25 | 0.0 | 3.0 | 0.00 | 0.00 | 0.00 | 44 | 1013.5 |
| 20260905161936 | 96 | 285 | 0.0 | 3.0 | 0.00 | 0.00 | 0.00 | 46 | 1013.4 |
| 20260905161408 | 95 | 34 | 0.0 | 3.0 | 0.00 | 0.00 | 0.00 | 48 | 1013.5 |
| 20260905160907 | 94 | 239 | 0.0 | 3.0 | 0.00 | 0.00 | 0.00 | 47 | 1013.5 |
| 20260905160339 | 94 | 72 | 0.0 | 2.0 | 0.00 | 0.00 | 0.00 | 48 | 1013.5 |
| 20260905155836 | 93 | 345 | 0.0 | 2.0 | 0.00 | 0.00 | 0.00 | 49 | 1013.5 |
| 20260905155556 | 93 | 357 | 0.0 | 4.0 | 0.00 | 0.00 | 0.00 | 48 | 1013.5 |
| 20260905154809 | 92 | 129 | 1.0 | 4.0 | 0.00 | 0.00 | 0.00 | 51 | 1013.5 |
| 20260905154241 | 92 | 207 | 1.0 | 5.0 | 0.00 | 0.00 | 0.00 | 50 | 1013.5 |
| 20260905153718 | 93 | 265 | 0.0 | 5.0 | 0.00 | 0.00 | 0.00 | 51 | 1013.5 |
| 20260905153412 | 93 | 261 | 0.0 | 3.0 | 0.00 | 0.00 | 0.00 | 50 | 1013.5 |
| 20260905152621 | 92 | 255 | 0.0 | 3.0 | 0.00 | 0.00 | 0.00 | 51 | 1013.6 |
| 20260905152115 | 92 | 19 | 0.0 | 2.0 | 0.00 | 0.00 | 0.00 | 54 | 1013.5 |
| 20260905151808 | 91 | 277 | 1.0 | 5.0 | 0.00 | 0.00 | 0.00 | 54 | 1013.5 |
| 20260905151018 | 90 | 146 | 2.0 | 5.0 | 0.00 | 0.00 | 0.00 | 55 | 1013.3 |
| 20260905150453 | 90 | 237 | 2.0 | 5.0 | 0.00 | 0.00 | 0.00 | 56 | 1013.3 |
| 20260905145952 | 89 | 198 | 1.0 | 5.0 | 0.00 | 0.00 | 0.00 | 56 | 1013.2 |
| 20260905145444 | 89 | 243 | 1.0 | 5.0 | 0.00 | 0.00 | 0.00 | 56 | 1013.2 |
| 20260905144940 | 89 | 188 | 1.0 | 4.0 | 0.00 | 0.00 | 0.00 | 58 | 1013.2 |
| 20260905144439 | 89 | 250 | 0.0 | 4.0 | 0.00 | 0.00 | 0.00 | 59 | 1013.2 |
| 20260905143912 | 88 | 230 | 1.0 | 4.0 | 0.00 | 0.00 | 0.00 | 60 | 1013.2 |
| 20260905143346 | 87 | 250 | 1.0 | 5.0 | 0.00 | 0.00 | 0.00 | 61 | 1013.2 |
| 20260905142821 | 87 | 269 | 1.0 | 5.0 | 0.00 | 0.00 | 0.00 | 60 | 1013.3 |
| 20260905142320 | 87 | 316 | 1.0 | 6.0 | 0.00 | 0.00 | 0.00 | 63 | 1013.3 |
| 20260905141822 | 86 | 217 | 0.0 | 6.0 | 0.00 | 0.00 | 0.00 | 62 | 1013.3 |
| 20260905141545 | 86 | 228 | 0.0 | 3.0 | 0.00 | 0.00 | 0.00 | 63 | 1013.3 |
| 20260905140813 | 86 | 257 | 1.0 | 4.0 | 0.00 | 0.00 | 0.00 | 63 | 1013.3 |
| 20260905140512 | 85 | 136 | 1.0 | 4.0 | 0.00 | 0.00 | 0.00 | 64 | 1013.3 |
| 20260905135720 | 85 | 237 | 0.0 | 4.0 | 0.00 | 0.00 | 0.00 | 64 | 1013.3 |
| 20260905135219 | 84 | 154 | 0.0 | 3.0 | 0.00 | 0.00 | 0.00 | 67 | 1013.3 |
| 20260905134650 | 83 | 124 | 1.0 | 3.0 | 0.00 | 0.00 | 0.00 | 68 | 1013.2 |
| 20260905134149 | 83 | 218 | 0.0 | 3.0 | 0.00 | 0.00 | 0.00 | 69 | 1013.1 |
| 20260905133642 | 82 | 155 | 0.0 | 2.0 | 0.00 | 0.00 | 0.00 | 70 | 1013.1 |
| 20260905133404 | 82 | 129 | 0.0 | 0.0 | 0.00 | 0.00 | 0.00 | 71 | 1013.1 |
| 20260905132832 | 81 | 154 | 0.0 | 0.0 | 0.00 | 0.00 | 0.00 | 71 | 1013.1 |
| 20260905132111 | 81 | 244 | 0.0 | 0.0 | 0.00 | 0.00 | 0.00 | 72 | 1013.0 |
| 20260905131542 | 81 | 244 | 0.0 | 0.0 | 0.00 | 0.00 | 0.00 | 72 | 1013.1 |
| 20260905131042 | 80 | 229 | 0.0 | 0.0 | 0.00 | 0.00 | 0.00 | 73 | 1013.0 |
| 20260905130758 | 80 | 226 | 0.0 | 2.0 | 0.00 | 0.00 | 0.00 | 74 | 1013.0 |
| 20260905130034 | 80 | 226 | 0.0 | 2.0 | 0.00 | 0.00 | 0.00 | 74 | 1012.9 |
| 20260905125529 | 79 | 118 | 0.0 | 2.0 | 0.00 | 0.00 | 0.00 | 75 | 1012.7 |
| 20260905125010 | 79 | 236 | 0.0 | 2.0 | 0.00 | 0.00 | 0.00 | 76 | 1012.6 |
| 20260905124438 | 78 | 131 | 0.0 | 2.0 | 0.00 | 0.00 | 0.00 | 77 | 1012.5 |
| 20260905123910 | 77 | 122 | 0.0 | 2.0 | 0.00 | 0.00 | 0.00 | 79 | 1012.4 |
| 20260905123406 | 76 | 243 | 0.0 | 0.0 | 0.00 | 0.00 | 0.00 | 80 | 1012.4 |
| 20260905122904 | 76 | 255 | 0.0 | 0.0 | 0.00 | 0.00 | 0.00 | 80 | 1012.5 |
| 20260905122402 | 76 | 255 | 0.0 | 0.0 | 0.00 | 0.00 | 0.00 | 80 | 1012.5 |
| 20260905121839 | 76 | 255 | 0.0 | 0.0 | 0.00 | 0.00 | 0.00 | 79 | 1012.6 |
| 20260905121307 | 76 | 255 | 0.0 | 0.0 | 0.00 | 0.00 | 0.00 | 79 | 1012.5 |
| 20260905120803 | 76 | 254 | 0.0 | 0.0 | 0.00 | 0.00 | 0.00 | 79 | 1012.6 |
| 20260905120239 | 76 | 254 | 0.0 | 0.0 | 0.00 | 0.00 | 0.00 | 78 | 1012.5 |
| 20260905115713 | 76 | 255 | 0.0 | 0.0 | 0.00 | 0.00 | 0.00 | 79 | 1012.6 |
| 20260905115144 | 76 | 255 | 0.0 | 0.0 | 0.00 | 0.00 | 0.00 | 79 | 1012.6 |
| 20260905114640 | 76 | 255 | 0.0 | 0.0 | 0.00 | 0.00 | 0.00 | 78 | 1012.6 |
| 20260905114343 | 76 | 255 | 0.0 | 0.0 | 0.00 | 0.00 | 0.00 | 78 | 1012.5 |
| 20260905113551 | 76 | 255 | 0.0 | 0.0 | 0.00 | 0.00 | 0.00 | 77 | 1012.5 |
| 20260905113036 | 76 | 255 | 0.0 | 0.0 | 0.00 | 0.00 | 0.00 | 76 | 1012.5 |
| 20260905112535 | 77 | 255 | 0.0 | 0.0 | 0.00 | 0.00 | 0.00 | 76 | 1012.6 |
| 20260905112036 | 77 | 255 | 0.0 | 0.0 | 0.00 | 0.00 | 0.00 | 77 | 1012.5 |
| 20260905111535 | 76 | 255 | 0.0 | 0.0 | 0.00 | 0.00 | 0.00 | 76 | 1012.6 |
| 20260905111033 | 76 | 255 | 0.0 | 0.0 | 0.00 | 0.00 | 0.00 | 76 | 1012.5 |
| 20260905110528 | 77 | 255 | 0.0 | 0.0 | 0.00 | 0.00 | 0.00 | 74 | 1012.4 |
| 20260905110026 | 77 | 255 | 0.0 | 0.0 | 0.00 | 0.00 | 0.00 | 74 | 1012.3 |
| 20260905105528 | 77 | 255 | 0.0 | 0.0 | 0.00 | 0.00 | 0.00 | 74 | 1012.3 |
| 20260905105002 | 78 | 255 | 0.0 | 0.0 | 0.00 | 0.00 | 0.00 | 73 | 1012.4 |
| 20260905104506 | 78 | 255 | 0.0 | 0.0 | 0.00 | 0.00 | 0.00 | 73 | 1012.3 |
| 20260905103936 | 78 | 255 | 0.0 | 0.0 | 0.00 | 0.00 | 0.00 | 72 | 1012.4 |
| 20260905103912 | 79 | 254 | 0.0 | 0.0 | 0.00 | 0.00 | 0.00 | 71 | 1012.4 |
| 20260905102920 | 79 | 255 | 0.0 | 0.0 | 0.00 | 0.00 | 0.00 | 70 | 1012.4 |
| 20260905102418 | 79 | 255 | 0.0 | 0.0 | 0.00 | 0.00 | 0.00 | 69 | 1012.4 |
| 20260905101916 | 80 | 254 | 0.0 | 0.0 | 0.00 | 0.00 | 0.00 | 69 | 1012.4 |
| 20260905101415 | 80 | 254 | 0.0 | 0.0 | 0.00 | 0.00 | 0.00 | 69 | 1012.3 |
| 20260905100914 | 80 | 255 | 0.0 | 0.0 | 0.00 | 0.00 | 0.00 | 69 | 1012.2 |
| 20260905100413 | 80 | 255 | 0.0 | 0.0 | 0.00 | 0.00 | 0.00 | 69 | 1012.3 |
| 20260905095912 | 80 | 255 | 0.0 | 0.0 | 0.00 | 0.00 | 0.00 | 69 | 1012.3 |
| 20260905095414 | 80 | 255 | 0.0 | 2.0 | 0.00 | 0.00 | 0.00 | 69 | 1012.2 |
| 20260905094908 | 80 | 255 | 0.0 | 2.0 | 0.00 | 0.00 | 0.00 | 69 | 1012.1 |
| 20260905094633 | 80 | 159 | 0.0 | 2.0 | 0.00 | 0.00 | 0.00 | 69 | 1012.1 |
| 20260905093910 | 80 | 229 | 0.0 | 2.0 | 0.00 | 0.00 | 0.00 | 70 | 1012.1 |
| 20260905093604 | 80 | 240 | 0.0 | 0.0 | 0.00 | 0.00 | 0.00 | 71 | 1012.2 |
| 20260905092839 | 79 | 240 | 0.0 | 0.0 | 0.00 | 0.00 | 0.00 | 71 | 1012.2 |
| 20260905092342 | 79 | 195 | 0.0 | 0.0 | 0.00 | 0.00 | 0.00 | 73 | 1012.1 |
| 20260905091815 | 78 | 219 | 0.0 | 0.0 | 0.00 | 0.00 | 0.00 | 74 | 1012.1 |
| 20260905091313 | 78 | 219 | 0.0 | 0.0 | 0.00 | 0.00 | 0.00 | 74 | 1012.1 |
| 20260905091037 | 78 | 219 | 0.0 | 0.0 | 0.00 | 0.00 | 0.00 | 73 | 1012.1 |
| 20260905090312 | 79 | 219 | 0.0 | 0.0 | 0.00 | 0.00 | 0.00 | 72 | 1012.1 |
| 20260905085810 | 79 | 219 | 0.0 | 0.0 | 0.00 | 0.00 | 0.00 | 72 | 1012.0 |
| 20260905085309 | 79 | 219 | 0.0 | 0.0 | 0.00 | 0.00 | 0.00 | 72 | 1011.9 |
| 20260905084811 | 80 | 219 | 0.0 | 0.0 | 0.00 | 0.00 | 0.00 | 71 | 1011.7 |
| 20260905084250 | 80 | 219 | 0.0 | 0.0 | 0.00 | 0.00 | 0.00 | 70 | 1011.7 |
| 20260905083723 | 81 | 219 | 0.0 | 0.0 | 0.00 | 0.00 | 0.00 | 69 | 1011.7 |
| 20260905083223 | 81 | 219 | 0.0 | 0.0 | 0.00 | 0.00 | 0.00 | 68 | 1011.6 |
| 20260905082703 | 82 | 219 | 0.0 | 0.0 | 0.00 | 0.00 | 0.00 | 67 | 1011.5 |
| 20260905082201 | 82 | 219 | 0.0 | 0.0 | 0.00 | 0.00 | 0.00 | 67 | 1011.6 |
| 20260905081640 | 82 | 219 | 0.0 | 0.0 | 0.00 | 0.00 | 0.00 | 67 | 1011.5 |
| 20260905081115 | 82 | 219 | 0.0 | 0.0 | 0.00 | 0.00 | 0.00 | 67 | 1011.6 |
| 20260905080554 | 82 | 215 | 0.0 | 0.0 | 0.00 | 0.00 | 0.00 | 67 | 1011.6 |
| 20260905080032 | 82 | 184 | 0.0 | 0.0 | 0.00 | 0.00 | 0.00 | 67 | 1011.5 |
| 20260905075514 | 82 | 270 | 0.0 | 3.0 | 0.00 | 0.00 | 0.00 | 67 | 1011.6 |
| 20260905074953 | 82 | 252 | 0.0 | 3.0 | 0.00 | 0.00 | 0.00 | 67 | 1011.6 |
| 20260905074453 | 82 | 114 | 0.0 | 2.0 | 0.00 | 0.00 | 0.00 | 68 | 1011.6 |
| 20260905073951 | 81 | 123 | 0.0 | 2.0 | 0.00 | 0.00 | 0.00 | 68 | 1011.7 |
| 20260905073452 | 81 | 211 | 0.0 | 1.0 | 0.00 | 0.00 | 0.00 | 68 | 1011.7 |
| 20260905072948 | 81 | 221 | 0.0 | 0.0 | 0.00 | 0.00 | 0.00 | 68 | 1011.9 |
| 20260905072706 | 81 | 226 | 0.0 | 0.0 | 0.00 | 0.00 | 0.00 | 67 | 1012.0 |
| 20260905072142 | 82 | 226 | 0.0 | 0.0 | 0.00 | 0.00 | 0.00 | 66 | 1012.1 |
| 20260905071639 | 82 | 226 | 0.0 | 0.0 | 0.00 | 0.00 | 0.00 | 66 | 1012.2 |
| 20260905070920 | 82 | 226 | 0.0 | 0.0 | 0.00 | 0.00 | 0.00 | 66 | 1012.3 |
| 20260905070415 | 82 | 226 | 0.0 | 0.0 | 0.00 | 0.00 | 0.00 | 65 | 1012.3 |
| 20260905070125 | 83 | 226 | 0.0 | 0.0 | 0.00 | 0.00 | 0.00 | 64 | 1012.3 |
| 20260905065346 | 83 | 226 | 0.0 | 0.0 | 0.00 | 0.00 | 0.00 | 64 | 1012.3 |
| 20260905064843 | 83 | 226 | 0.0 | 0.0 | 0.00 | 0.00 | 0.00 | 63 | 1012.3 |
| 20260905064825 | 84 | 226 | 0.0 | 0.0 | 0.00 | 0.00 | 0.00 | 62 | 1012.3 |
| 20260905063819 | 84 | 226 | 0.0 | 0.0 | 0.00 | 0.00 | 0.00 | 62 | 1012.3 |
| 20260905063252 | 84 | 226 | 0.0 | 2.0 | 0.00 | 0.00 | 0.00 | 61 | 1012.4 |
| 20260905062726 | 84 | 226 | 0.0 | 1.0 | 0.00 | 0.00 | 0.00 | 61 | 1012.3 |
| 20260905062213 | 84 | 195 | 0.0 | 2.0 | 0.00 | 0.00 | 0.00 | 61 | 1012.4 |
| 20260905061714 | 84 | 217 | 0.0 | 1.0 | 0.00 | 0.00 | 0.00 | 61 | 1012.3 |
| 20260905061149 | 85 | 215 | 0.0 | 0.0 | 0.00 | 0.00 | 0.00 | 60 | 1012.3 |
| 20260905060621 | 85 | 215 | 0.0 | 1.0 | 0.00 | 0.00 | 0.00 | 60 | 1012.3 |
| 20260905060123 | 85 | 215 | 0.0 | 2.0 | 0.00 | 0.00 | 0.00 | 60 | 1012.3 |
| 20260905055553 | 85 | 152 | 0.0 | 2.0 | 0.00 | 0.00 | 0.00 | 59 | 1012.2 |
| 20260905055052 | 85 | 266 | 0.0 | 3.0 | 0.00 | 0.00 | 0.00 | 59 | 1012.2 |
| 20260905054546 | 85 | 222 | 1.0 | 6.0 | 0.00 | 0.00 | 0.00 | 59 | 1012.1 |
| 20260905054022 | 85 | 248 | 1.0 | 6.0 | 0.00 | 0.00 | 0.00 | 59 | 1012.1 |
| 20260905053455 | 85 | 193 | 1.0 | 4.0 | 0.00 | 0.00 | 0.00 | 58 | 1012.0 |
| 20260905052927 | 86 | 122 | 1.0 | 4.0 | 0.00 | 0.00 | 0.00 | 58 | 1011.9 |
| 20260905052423 | 86 | 153 | 1.0 | 5.0 | 0.00 | 0.00 | 0.00 | 58 | 1011.9 |
| 20260905051920 | 86 | 229 | 1.0 | 6.0 | 0.00 | 0.00 | 0.00 | 58 | 1011.9 |
| 20260905051419 | 86 | 210 | 1.0 | 6.0 | 0.00 | 0.00 | 0.00 | 58 | 1011.7 |
| 20260905050852 | 86 | 177 | 1.0 | 3.0 | 0.00 | 0.00 | 0.00 | 58 | 1011.7 |
| 20260905050325 | 86 | 215 | 1.0 | 3.0 | 0.00 | 0.00 | 0.00 | 58 | 1011.6 |
| 20260905045758 | 86 | 235 | 1.0 | 4.0 | 0.00 | 0.00 | 0.00 | 58 | 1011.6 |
| 20260905045520 | 86 | 259 | 0.0 | 4.0 | 0.00 | 0.00 | 0.00 | 57 | 1011.7 |
| 20260905044747 | 86 | 149 | 1.0 | 3.0 | 0.00 | 0.00 | 0.00 | 57 | 1011.9 |
| 20260905044243 | 87 | 125 | 1.0 | 5.0 | 0.00 | 0.00 | 0.00 | 56 | 1011.9 |
| 20260905044003 | 87 | 160 | 2.0 | 6.0 | 0.00 | 0.00 | 0.00 | 56 | 1011.9 |
| 20260905043215 | 87 | 223 | 2.0 | 6.0 | 0.00 | 0.00 | 0.00 | 55 | 1011.9 |
| 20260905043151 | 87 | 148 | 2.0 | 6.0 | 0.00 | 0.00 | 0.00 | 55 | 1011.7 |
| 20260905042206 | 87 | 248 | 1.0 | 4.0 | 0.00 | 0.00 | 0.00 | 54 | 1011.7 |
| 20260905041637 | 87 | 233 | 2.0 | 5.0 | 0.00 | 0.00 | 0.00 | 54 | 1011.7 |
| 20260905041133 | 87 | 220 | 2.0 | 5.0 | 0.00 | 0.00 | 0.00 | 54 | 1011.9 |
| 20260905040631 | 87 | 165 | 1.0 | 6.0 | 0.00 | 0.00 | 0.00 | 54 | 1011.7 |
| 20260905040129 | 87 | 162 | 1.0 | 6.0 | 0.00 | 0.00 | 0.00 | 54 | 1011.9 |
| 20260905035628 | 87 | 161 | 1.0 | 4.0 | 0.00 | 0.00 | 0.00 | 55 | 1012.0 |
| 20260905035324 | 88 | 219 | 1.0 | 4.0 | 0.00 | 0.00 | 0.00 | 55 | 1012.0 |
| 20260905035040 | 88 | 136 | 1.0 | 5.0 | 0.00 | 0.00 | 0.00 | 55 | 1012.0 |
| 20260905034252 | 88 | 164 | 0.0 | 3.0 | 0.00 | 0.00 | 0.00 | 55 | 1011.9 |
| 20260905033744 | 88 | 115 | 0.0 | 3.0 | 0.00 | 0.00 | 0.00 | 55 | 1011.9 |
| 20260905033025 | 88 | 110 | 0.0 | 3.0 | 0.00 | 0.00 | 0.00 | 55 | 1011.9 |
| 20260905032457 | 88 | 124 | 0.0 | 3.0 | 0.00 | 0.00 | 0.00 | 55 | 1011.9 |
| 20260905032225 | 88 | 119 | 0.0 | 3.0 | 0.00 | 0.00 | 0.00 | 54 | 1011.7 |
| 20260905031650 | 89 | 127 | 0.0 | 4.0 | 0.00 | 0.00 | 0.00 | 53 | 1011.7 |
| 20260905030924 | 89 | 139 | 1.0 | 4.0 | 0.00 | 0.00 | 0.00 | 53 | 1011.7 |
| 20260905030357 | 89 | 148 | 1.0 | 2.0 | 0.00 | 0.00 | 0.00 | 52 | 1011.7 |
| 20260905025829 | 89 | 111 | 1.0 | 5.0 | 0.00 | 0.00 | 0.00 | 50 | 1011.7 |
| 20260905025329 | 89 | 117 | 1.0 | 5.0 | 0.00 | 0.00 | 0.00 | 50 | 1011.6 |
| 20260905024801 | 89 | 100 | 0.0 | 3.0 | 0.00 | 0.00 | 0.00 | 50 | 1011.5 |
| 20260905024258 | 89 | 119 | 0.0 | 3.0 | 0.00 | 0.00 | 0.00 | 49 | 1011.5 |
| 20260905023755 | 89 | 124 | 0.0 | 4.0 | 0.00 | 0.00 | 0.00 | 49 | 1011.4 |
| 20260905023544 | 89 | 139 | 1.0 | 4.0 | 0.00 | 0.00 | 0.00 | 49 | 1011.3 |
| 20260905023445 | 89 | 141 | 1.0 | 5.0 | 0.00 | 0.00 | 0.00 | 49 | 1011.3 |
| 20260905022223 | 89 | 129 | 1.0 | 5.0 | 0.00 | 0.00 | 0.00 | 49 | 1011.1 |
| 20260905021655 | 90 | 131 | 0.0 | 4.0 | 0.00 | 0.00 | 0.00 | 49 | 1011.1 |
| 20260905021637 | 90 | 131 | 0.0 | 2.0 | 0.00 | 0.00 | 0.00 | 49 | 1011.0 |
| 20260905020627 | 90 | 131 | 0.0 | 3.0 | 0.00 | 0.00 | 0.00 | 49 | 1010.9 |
| 20260905020116 | 90 | 131 | 0.0 | 3.0 | 0.00 | 0.00 | 0.00 | 49 | 1010.8 |
| 20260905015615 | 90 | 135 | 1.0 | 4.0 | 0.00 | 0.00 | 0.00 | 49 | 1010.7 |
| 20260905015115 | 91 | 150 | 1.0 | 4.0 | 0.00 | 0.00 | 0.00 | 49 | 1010.7 |
| 20260905014756 | 91 | 117 | 0.0 | 5.0 | 0.00 | 0.00 | 0.00 | 48 | 1010.6 |
| 20260905014646 | 91 | 137 | 1.0 | 5.0 | 0.00 | 0.00 | 0.00 | 48 | 1010.6 |
| 20260905013604 | 91 | 139 | 1.0 | 4.0 | 0.00 | 0.00 | 0.00 | 47 | 1010.5 |
| 20260905013105 | 91 | 108 | 1.0 | 6.0 | 0.00 | 0.00 | 0.00 | 46 | 1010.5 |
| 20260905012541 | 91 | 144 | 1.0 | 6.0 | 0.00 | 0.00 | 0.00 | 46 | 1010.5 |
| 20260905012044 | 92 | 139 | 1.0 | 5.0 | 0.00 | 0.00 | 0.00 | 45 | 1010.5 |
| 20260905011539 | 92 | 132 | 1.0 | 5.0 | 0.00 | 0.00 | 0.00 | 44 | 1010.5 |
| 20260905011042 | 92 | 143 | 1.0 | 5.0 | 0.00 | 0.00 | 0.00 | 44 | 1010.3 |
| 20260905010741 | 92 | 129 | 2.0 | 5.0 | 0.00 | 0.00 | 0.00 | 43 | 1010.3 |
| 20260905005955 | 92 | 131 | 2.0 | 5.0 | 0.00 | 0.00 | 0.00 | 43 | 1010.3 |
| 20260905005449 | 93 | 121 | 2.0 | 5.0 | 0.00 | 0.00 | 0.00 | 42 | 1010.1 |
| 20260905004931 | 93 | 99 | 3.0 | 5.0 | 0.00 | 0.00 | 0.00 | 42 | 1010.1 |
| 20260905004431 | 93 | 132 | 2.0 | 6.0 | 0.00 | 0.00 | 0.00 | 41 | 1010.1 |
| 20260905003905 | 94 | 150 | 2.0 | 7.0 | 0.00 | 0.00 | 0.00 | 41 | 1010.1 |
| 20260905003353 | 94 | 139 | 3.0 | 9.0 | 0.00 | 0.00 | 0.00 | 40 | 1010.1 |
| 20260905003109 | 94 | 120 | 3.0 | 9.0 | 0.00 | 0.00 | 0.00 | 40 | 1010.1 |
| 20260905002353 | 95 | 110 | 2.0 | 7.0 | 0.00 | 0.00 | 0.00 | 40 | 1010.0 |
| 20260905001825 | 95 | 155 | 2.0 | 7.0 | 0.00 | 0.00 | 0.00 | 40 | 1009.9 |
| 20260905001312 | 95 | 158 | 2.0 | 7.0 | 0.00 | 0.00 | 0.00 | 39 | 1009.9 |
| 20260905000748 | 96 | 108 | 2.0 | 7.0 | 0.00 | 0.00 | 0.00 | 38 | 1009.9 |
| 20260905000248 | 96 | 139 | 3.0 | 7.0 | 0.00 | 0.00 | 0.00 | 38 | 1009.9 |
| 20260904235748 | 96 | 122 | 3.0 | 7.0 | 0.00 | 0.00 | 0.00 | 38 | 1009.8 |
| 20260904235504 | 96 | 111 | 3.0 | 8.0 | 0.00 | 0.00 | 0.00 | 38 | 1009.9 |
| 20260904234746 | 96 | 176 | 4.0 | 8.0 | 0.00 | 0.00 | 0.00 | 38 | 1009.9 |
| 20260904234507 | 96 | 115 | 3.0 | 8.0 | 0.00 | 0.00 | 0.00 | 38 | 1009.8 |
| 20260904233742 | 96 | 125 | 3.0 | 8.0 | 0.00 | 0.00 | 0.00 | 38 | 1009.8 |
| 20260904233245 | 97 | 159 | 3.0 | 8.0 | 0.00 | 0.00 | 0.00 | 38 | 1009.8 |
| 20260904232720 | 97 | 127 | 3.0 | 8.0 | 0.00 | 0.00 | 0.00 | 38 | 1009.8 |
| 20260904232219 | 97 | 186 | 3.0 | 8.0 | 0.00 | 0.00 | 0.00 | 38 | 1009.7 |
| 20260904231654 | 97 | 143 | 3.0 | 8.0 | 0.00 | 0.00 | 0.00 | 38 | 1009.8 |
| 20260904231126 | 97 | 139 | 4.0 | 10.0 | 0.00 | 0.00 | 0.00 | 38 | 1009.8 |
| 20260904230623 | 97 | 152 | 5.0 | 11.0 | 0.00 | 0.00 | 0.00 | 37 | 1009.8 |
| 20260904230053 | 97 | 103 | 4.0 | 8.0 | 0.00 | 0.00 | 0.00 | 37 | 1009.8 |
| 20260904225534 | 97 | 113 | 4.0 | 9.0 | 0.00 | 0.00 | 0.00 | 38 | 1009.8 |
| 20260904225034 | 98 | 113 | 4.0 | 10.0 | 0.00 | 0.00 | 0.00 | 37 | 1009.9 |
| 20260904224532 | 98 | 229 | 4.0 | 10.0 | 0.00 | 0.00 | 0.00 | 37 | 1009.9 |
| 20260904224030 | 97 | 129 | 3.0 | 9.0 | 0.00 | 0.00 | 0.00 | 38 | 1009.9 |
| 20260904223502 | 97 | 153 | 4.0 | 8.0 | 0.00 | 0.00 | 0.00 | 38 | 1010.0 |
| 20260904223007 | 98 | 187 | 4.0 | 10.0 | 0.00 | 0.00 | 0.00 | 37 | 1010.0 |
| 20260904222433 | 98 | 129 | 4.0 | 10.0 | 0.00 | 0.00 | 0.00 | 38 | 1010.0 |
| 20260904221915 | 99 | 144 | 4.0 | 8.0 | 0.00 | 0.00 | 0.00 | 38 | 1010.0 |
| 20260904221414 | 99 | 148 | 3.0 | 9.0 | 0.00 | 0.00 | 0.00 | 39 | 1009.9 |
| 20260904220847 | 99 | 214 | 3.0 | 7.0 | 0.00 | 0.00 | 0.00 | 38 | 1009.9 |
| 20260904220345 | 98 | 117 | 4.0 | 9.0 | 0.00 | 0.00 | 0.00 | 38 | 1009.9 |
| 20260904215842 | 98 | 236 | 4.0 | 9.0 | 0.00 | 0.00 | 0.00 | 38 | 1010.0 |
| 20260904215314 | 98 | 179 | 4.0 | 9.0 | 0.00 | 0.00 | 0.00 | 39 | 1010.1 |
| 20260904214748 | 98 | 111 | 5.0 | 12.0 | 0.00 | 0.00 | 0.00 | 39 | 1010.1 |
| 20260904214222 | 98 | 258 | 5.0 | 12.0 | 0.00 | 0.00 | 0.00 | 38 | 1010.2 |
| 20260904213654 | 98 | 147 | 5.0 | 11.0 | 0.00 | 0.00 | 0.00 | 40 | 1010.2 |
| 20260904213149 | 98 | 106 | 5.0 | 11.0 | 0.00 | 0.00 | 0.00 | 39 | 1010.2 |
| 20260904212645 | 98 | 129 | 4.0 | 11.0 | 0.00 | 0.00 | 0.00 | 39 | 1010.3 |
| 20260904212142 | 98 | 142 | 4.0 | 9.0 | 0.00 | 0.00 | 0.00 | 39 | 1010.4 |